Regional Weather Roundup
Issued by NWS Kansas City/Pleasant Hill, MO

Home | Current Version | Previous Version | Text Only | Print | Product List | Glossary On
Versions: 1 2 3 4 5 6 7 8 9 10 11 12 13 14 15 16 17 18 19 20 21 22 23 24 25 26 27 28 29 30 31 32 33 34 35 36 37 38 39 40 41 42 43 44 45 46 47 48 49 50
000
ASUS43 KEAX 211304
RWREAX

WEATHER ROUNDUP FOR EASTERN KANSAS AND NORTHWEST MISSOURI
NATIONAL WEATHER SERVICE KANSAS CITY/PLEASANT HILL MO
800 AM CDT TUE OCT 21 2014

KSZ040-057-103>105-MOZ028-029-037-043-211400-
...KANSAS CITY METROPOLITAN AREA...

CITY           SKY/WX    TMP DP  RH WIND       PRES   REMARKS
K.C. INTL      CLEAR     48  43  82 E3        30.12R
K.C. DOWNTOWN  CLEAR     46  43  89 CALM      30.12S
LEES SUMMIT    CLEAR     47  43  86 CALM      30.12R
OLATHE - IXD   CLEAR     47  43  86 CALM      30.12S
OLATHE - OJC   CLEAR     48  42  80 CALM      30.11R
LAWRENCE       CLEAR     36  35  96 CALM      30.13R FOG

$$

MOZ001>008-011>017-020>025-030>033-038>040-044>046-053-054-211400-
...NORTHERN AND CENTRAL MISSOURI...

CITY           SKY/WX    TMP DP  RH WIND       PRES   REMARKS
ST. JOSEPH     FOG       35  35 100 CALM      30.13R VSB 1/2
MOSBY          SUNNY     37  37 100 CALM      30.12S
WHITEMAN AFB   CLEAR     42  40  92 CALM      30.12R
CLINTON        FOG       41  41 100 CALM      30.12S VSB<1/4
SEDALIA        CLEAR     48  42  80 CALM      30.13R
WARSAW         NOT AVBL
MARSHALL       CLEAR     46  45  93 CALM      30.14R
CHILLICOTHE      N/A     40  38  93 CALM      30.14R
MOBERLY        CLEAR     45  41  87 CALM      30.12R
KIRKSVILLE     CLEAR     43  41  93 NE6       30.13R

$$

MOZ041-047>049-056>058-063>065-088>090-097-211400-
...EASTERN AND SOUTHERN MISSOURI...

CITY           SKY/WX    TMP DP  RH WIND       PRES   REMARKS
ST. LOUIS INTL CLEAR     50  44  80 W5        30.10R
SPIRIT OF STL  CLEAR     43  41  93 CALM      30.10R
COLUMBIA       CLEAR     47  43  86 NW5       30.12R
JEFFERSON CITY CLEAR     43  42  97 CALM      30.13R
MEXICO         CLEAR    N/A N/A N/A CALM      30.11R
ROLLA          CLEAR     44  41  89 W5        30.10R
LEBANON        CLEAR     48  43  81 CALM      30.12R
OSAGE BEACH    CLEAR     41  37  87 CALM      30.12R
SPRINGFIELD    CLEAR     47  44  90 CALM      30.11S FOG
BRANSON        PTCLDY    46  46 100 CALM      30.13R FOG
NEVADA         FOG       43  43 100 CALM      30.13R VSB 3/4
JOPLIN         FOG       49  49 100 S3        30.12R VSB<1/4
WEST PLAINS    CLEAR     46  42  86 CALM      30.11S

$$

IAZ060-094-KSZ022-034>040-054-083-096-NEZ052-066-093-211400-
...KANSAS...SOUTHEAST NEBRASKA AND IOWA...

CITY           SKY/WX    TMP DP  RH WIND       PRES   REMARKS
TOPEKA         PTCLDY    40  39  97 CALM      30.12S FOG
MANHATTAN      CLEAR     39  38  96 CALM      30.11R FOG
EMPORIA        CLEAR     44  42  93 CALM      30.11R
CHANUTE        CLEAR     45  44  97 CALM      30.11R
WICHITA        PTCLDY    55  51  86 E6        30.09R
OMAHA          CLEAR     39  36  89 NW3       30.12S
LINCOLN        CLEAR     38  35  89 CALM      30.12S
FALLS CITY     CLEAR     35  33  92 E3        30.11S
LAMONI         CLEAR     46  39  76 NE5       30.12R
DES MOINES     CLEAR     46  40  79 E3        30.13R

$$




USA.gov is the U.S. government's official web portal to all federal, state and local government web resources and services.